Date String (YYYY-MM-DD hh:mm:ss) UTC,Instrument flags,Ambient pressure (hPa),Sample flow (lpm),Bypass flow (lpm),Sample temperature (°C),Ambient temperature (°C),ASC tube jacket temperature (°C),LED temperature (°C),Box temperature (°C),Sample RH (%),Span deviation,Mass concentration (μg/m³),Mass concentration (μg/m³),Mass concentration (μg/m³)
DateTimeUTC,F1_M11,P_M11,Q1_M11,Q2_M11,T1_M11,T2_M11,T3_M11,T4_M11,T5_M11,U1_M11,ZSPAN_M11,X0_M11,X2_M11,X1_M11
2022-05-22 00:00:00,,0831.1,4.99,0.00,23.4,22.6,00.0,32.5,25.2,20.7,0000.0,0000.11,0000.01,0000.00
2022-05-22 00:01:00,,0831.1,5.01,0.00,23.4,22.5,00.0,32.5,25.2,20.5,0000.0,0000.02,0000.00,0000.00
2022-05-22 00:02:00,,0831.1,4.99,0.00,23.4,22.6,00.0,32.5,25.2,20.3,0000.0,0000.00,0000.00,0000.00
2022-05-22 00:03:00,,0831.2,5.01,0.00,23.4,22.6,00.0,32.5,25.2,20.6,0000.0,0000.02,0000.00,0000.00
2022-05-22 00:04:00,,0831.1,4.99,0.00,23.4,22.6,00.0,32.5,25.2,20.8,0000.0,0000.13,0000.01,0000.00
2022-05-22 00:05:00,,0831.2,5.01,0.00,23.4,22.6,00.0,32.5,25.1,20.4,0000.0,0000.13,0000.01,0000.00
2022-05-22 00:06:00,,0831.1,5.00,0.00,23.4,22.6,00.0,32.5,25.1,20.1,0000.0,0000.14,0000.02,0000.01
2022-05-22 00:07:00,,0831.1,5.02,0.00,23.4,22.6,00.0,32.4,25.1,20.5,0000.0,0000.15,0000.02,0000.01
2022-05-22 00:08:00,,0831.1,4.99,0.00,23.4,22.6,00.0,32.4,25.1,20.5,0000.0,0000.15,0000.02,0000.01
2022-05-22 00:09:00,,0831.2,5.00,0.00,23.3,22.5,00.0,32.4,25.1,21.0,0000.0,0000.15,0000.02,0000.01
2022-05-22 00:10:00,,0831.2,5.01,0.00,23.3,22.5,00.0,32.4,25.1,20.5,0000.0,0000.15,0000.02,0000.01
2022-05-22 00:11:00,,0831.1,4.99,0.00,23.3,22.5,00.0,32.4,25.1,20.4,0000.0,0000.15,0000.02,0000.01
2022-05-22 00:12:00,,0831.1,5.00,0.00,23.3,22.5,00.0,32.4,25.1,20.4,0000.0,0000.20,0000.04,0000.01
2022-05-22 00:13:00,,0831.1,5.00,0.00,23.3,22.4,00.0,32.4,25.0,20.8,0000.0,0000.23,0000.04,0000.01
2022-05-22 00:14:00,,0831.1,4.99,0.00,23.3,22.4,00.0,32.4,25.0,20.5,0000.0,0000.21,0000.04,0000.01
2022-05-22 00:15:00,,0831.1,5.01,0.00,23.3,22.3,00.0,32.4,25.0,20.5,0000.0,0000.10,0000.04,0000.01
2022-05-22 00:16:00,,0831.2,4.99,0.00,23.3,22.3,00.0,32.4,25.0,20.5,0000.0,0000.10,0000.04,0000.01
2022-05-22 00:17:00,,0831.1,5.01,0.00,23.2,22.3,00.0,32.3,25.0,20.3,0000.0,0000.09,0000.03,0000.01
2022-05-22 00:18:00,,0831.1,4.99,0.00,23.2,22.3,00.0,32.3,25.0,20.9,0000.0,0000.56,0000.03,0000.00
2022-05-22 00:19:00,,0831.3,5.00,0.00,23.2,22.3,00.0,32.3,25.0,21.1,0000.0,0000.74,0000.03,0000.01
2022-05-22 00:20:00,,0831.4,5.00,0.00,23.2,22.4,00.0,32.3,25.0,20.9,0000.0,0000.74,0000.03,0000.01
2022-05-22 00:21:00,,0831.3,5.00,0.00,23.2,22.4,00.0,32.3,25.0,21.2,0000.0,0000.76,0000.05,0000.01
2022-05-22 00:22:00,,0831.4,5.01,0.00,23.2,22.4,00.0,32.3,25.0,20.8,0000.0,0000.77,0000.05,0000.01
2022-05-22 00:23:00,,0831.4,5.00,0.00,23.2,22.4,00.0,32.3,25.0,21.2,0000.0,0000.71,0000.03,0000.00
2022-05-22 00:24:00,,0831.4,4.99,0.00,23.2,22.4,00.0,32.3,25.0,21.4,0000.0,0000.71,0000.03,0000.00
2022-05-22 00:25:00,,0831.4,5.00,0.00,23.2,22.4,00.0,32.3,25.0,20.5,0000.0,0000.72,0000.04,0000.00
2022-05-22 00:26:00,,0831.4,5.01,0.00,23.2,22.3,00.0,32.3,25.0,20.7,0000.0,0000.72,0000.04,0000.00
2022-05-22 00:27:00,,0831.4,4.99,0.00,23.2,22.3,00.0,32.3,25.0,20.4,0000.0,0000.72,0000.04,0000.00
2022-05-22 00:28:00,,0831.4,4.99,0.00,23.2,22.3,00.0,32.3,25.0,20.0,0000.0,0000.72,0000.04,0000.00
2022-05-22 00:29:00,,0831.4,5.02,0.00,23.2,22.3,00.0,32.3,25.0,19.8,0000.0,0000.23,0000.03,0000.00
2022-05-22 00:30:00,,0831.4,4.99,0.00,23.2,22.3,00.0,32.3,24.9,19.8,0000.0,0000.07,0000.03,0000.00
2022-05-22 00:31:00,,0831.4,5.00,0.00,23.2,22.3,00.0,32.2,24.9,19.8,0000.0,0000.10,0000.04,0000.00
2022-05-22 00:32:00,,0831.4,5.01,0.00,23.1,22.3,00.0,32.2,24.9,20.6,0000.0,0000.08,0000.03,0000.00
2022-05-22 00:33:00,,0831.4,5.00,0.00,23.1,22.3,00.0,32.2,24.9,20.3,0000.0,0000.08,0000.03,0000.00
2022-05-22 00:34:00,,0831.4,5.00,0.00,23.1,22.3,00.0,32.2,24.9,20.4,0000.0,0000.08,0000.03,0000.00
2022-05-22 00:35:00,,0831.4,5.00,0.00,23.1,22.3,00.0,32.2,24.9,20.3,0000.0,0000.07,0000.02,0000.00
2022-05-22 00:36:00,,0831.4,5.01,0.00,23.1,22.3,00.0,32.2,24.9,20.9,0000.0,0000.11,0000.04,0000.01
2022-05-22 00:37:00,,0831.5,5.00,0.00,23.2,22.3,00.0,32.2,25.0,20.9,0000.0,0000.11,0000.04,0000.01
2022-05-22 00:38:00,,0831.5,5.00,0.00,23.2,22.3,00.0,32.2,25.0,21.0,0000.0,0000.11,0000.04,0000.01
2022-05-22 00:39:00,,0831.5,4.99,0.00,23.2,22.3,00.0,32.2,24.9,20.9,0000.0,0000.11,0000.04,0000.01
2022-05-22 00:40:00,,0831.5,5.00,0.00,23.2,22.3,00.0,32.2,25.0,20.7,0000.0,0000.11,0000.04,0000.01
2022-05-22 00:41:00,,0831.6,5.00,0.00,23.2,22.3,00.0,32.2,25.0,21.0,0000.0,0000.09,0000.03,0000.01
2022-05-22 00:42:00,,0831.6,5.00,0.00,23.1,22.3,00.0,32.2,24.9,20.6,0000.0,0000.06,0000.02,0000.01
2022-05-22 00:43:00,,0831.5,5.00,0.00,23.1,22.3,00.0,32.2,24.9,20.3,0000.0,0000.07,0000.03,0000.01
2022-05-22 00:44:00,,0831.6,5.00,0.00,23.1,22.3,00.0,32.2,24.9,20.4,0000.0,0000.10,0000.04,0000.01
2022-05-22 00:45:00,,0831.6,5.00,0.00,23.1,22.3,00.0,32.2,24.9,20.1,0000.0,0000.16,0000.05,0000.01
2022-05-22 00:46:00,,0831.6,5.01,0.00,23.1,22.3,00.0,32.2,24.9,20.2,0000.0,0000.18,0000.05,0000.01
2022-05-22 00:47:00,,0831.5,5.00,0.00,23.1,22.3,00.0,32.2,24.9,20.4,0000.0,0000.16,0000.03,0000.00
2022-05-22 00:48:00,,0831.6,4.99,0.00,23.1,22.3,00.0,32.2,24.9,20.3,0000.0,0000.75,0000.05,0000.00
2022-05-22 00:49:00,,0831.6,4.99,0.00,23.1,22.3,00.0,32.2,24.9,20.8,0000.0,0000.98,0000.05,0000.00
2022-05-22 00:50:00,,0831.6,5.01,0.00,23.1,22.3,00.0,32.2,24.9,21.2,0000.0,0000.98,0000.05,0000.00
2022-05-22 00:51:00,,0831.6,4.99,0.00,23.1,22.3,00.0,32.2,24.9,21.1,0000.0,0000.98,0000.05,0000.00
2022-05-22 00:52:00,,0831.6,5.01,0.00,23.1,22.2,00.0,32.2,24.9,21.0,0000.0,0001.05,0000.06,0000.00
2022-05-22 00:53:00,,0831.6,5.00,0.00,23.1,22.2,00.0,32.2,24.9,20.6,0000.0,0001.09,0000.07,0000.00
2022-05-22 00:54:00,,0831.6,5.01,0.00,23.1,22.2,00.0,32.2,24.9,21.2,0000.0,0001.10,0000.07,0000.00
2022-05-22 00:55:00,,0831.6,5.00,0.00,23.1,22.3,00.0,32.2,24.9,21.7,0000.0,0001.07,0000.06,0000.00
2022-05-22 00:56:00,,0831.6,4.99,0.00,23.1,22.3,00.0,32.1,24.9,21.6,0000.0,0001.01,0000.05,0000.00
2022-05-22 00:57:00,,0831.6,5.01,0.00,23.1,22.3,00.0,32.1,24.9,21.0,0000.0,0000.97,0000.04,0000.00
2022-05-22 00:58:00,,0831.6,4.99,0.00,23.1,22.3,00.0,32.1,24.9,20.6,0000.0,0000.94,0000.04,0000.00
2022-05-22 00:59:00,,0831.6,5.01,0.00,23.1,22.3,00.0,32.1,24.9,20.4,0000.0,0000.33,0000.02,0000.00
